TimeCST,TemperatureF,Dew PointF,Humidity,Sea Level PressureIn,VisibilityMPH,Wind Direction,Wind SpeedMPH,Gust SpeedMPH,PrecipitationIn,Events,Conditions,WindDirDegrees,DateUTC
12:15 AM,11.8,5.0,74,30.31,10.0,West,4.6,-,N/A,,Clear,280,2013-01-14 06:15:00
12:35 AM,11.3,5.0,76,30.31,10.0,West,5.8,-,N/A,,Clear,280,2013-01-14 06:35:00
12:55 AM,11.3,5.2,76,30.31,10.0,WNW,6.9,-,N/A,,Clear,300,2013-01-14 06:55:00
1:15 AM,11.7,5.0,75,30.32,10.0,WNW,4.6,-,N/A,,Clear,290,2013-01-14 07:15:00
1:35 AM,10.6,4.8,78,30.32,10.0,WNW,4.6,-,N/A,,Clear,300,2013-01-14 07:35:00
1:55 AM,11.1,5.0,76,30.33,10.0,WNW,3.5,-,N/A,,Clear,290,2013-01-14 07:55:00
2:15 AM,11.1,5.0,76,30.35,10.0,WNW,4.6,-,N/A,,Clear,290,2013-01-14 08:15:00
2:35 AM,10.4,4.8,78,30.36,10.0,West,4.6,-,N/A,,Clear,280,2013-01-14 08:35:00
2:55 AM,10.6,4.6,77,30.38,10.0,WSW,4.6,-,N/A,,Clear,240,2013-01-14 08:55:00
4:15 AM,9.5,4.3,79,30.38,10.0,SW,5.8,-,N/A,,Clear,230,2013-01-14 10:15:00
4:35 AM,8.6,3.9,81,30.38,10.0,SSW,6.9,-,N/A,,Clear,210,2013-01-14 10:35:00
4:55 AM,8.8,3.9,81,30.37,10.0,SW,5.8,-,N/A,,Clear,220,2013-01-14 10:55:00
5:15 AM,9.0,4.1,81,30.38,10.0,SW,4.6,-,N/A,,Clear,220,2013-01-14 11:15:00
5:35 AM,9.0,4.1,81,30.38,10.0,WSW,6.9,-,N/A,,Clear,240,2013-01-14 11:35:00
5:55 AM,9.1,4.3,81,30.39,10.0,SW,5.8,-,N/A,,Clear,230,2013-01-14 11:55:00
6:15 AM,9.3,4.1,79,30.40,10.0,SW,5.8,-,N/A,,Clear,220,2013-01-14 12:15:00
6:35 AM,8.6,4.1,82,30.40,10.0,SW,5.8,-,N/A,,Clear,230,2013-01-14 12:35:00
6:55 AM,8.4,3.9,82,30.41,10.0,SW,4.6,-,N/A,,Clear,230,2013-01-14 12:55:00
7:15 AM,7.3,3.2,83,30.41,10.0,SSW,5.8,-,N/A,,Clear,210,2013-01-14 13:15:00
7:35 AM,7.7,3.2,82,30.41,7.0,SW,4.6,-,N/A,,Clear,220,2013-01-14 13:35:00
7:55 AM,8.8,4.1,81,30.42,10.0,SW,4.6,-,N/A,,Clear,220,2013-01-14 13:55:00
8:15 AM,10.8,5.7,80,30.42,10.0,SW,4.6,-,N/A,,Clear,230,2013-01-14 14:15:00
8:35 AM,12.2,6.6,78,30.44,10.0,SW,3.5,-,N/A,,Clear,220,2013-01-14 14:35:00
8:55 AM,12.9,7.5,79,30.44,10.0,WSW,3.5,-,N/A,,Clear,240,2013-01-14 14:55:00
9:15 AM,15.6,9.0,75,30.44,10.0,SW,5.8,-,N/A,,Clear,230,2013-01-14 15:15:00
9:35 AM,18.1,11.3,75,30.45,10.0,SW,6.9,-,N/A,,Clear,230,2013-01-14 15:35:00
9:55 AM,19.9,11.5,70,30.46,10.0,SW,6.9,-,N/A,,Clear,230,2013-01-14 15:55:00
10:15 AM,21.2,11.7,67,30.46,10.0,SW,6.9,-,N/A,,Clear,230,2013-01-14 16:15:00
10:35 AM,22.6,12.2,64,30.47,10.0,SW,10.4,-,N/A,,Clear,230,2013-01-14 16:35:00
10:55 AM,23.7,11.8,61,30.46,10.0,West,8.1,-,N/A,,Clear,260,2013-01-14 16:55:00
11:15 AM,24.4,10.8,56,30.45,10.0,SW,5.8,-,N/A,,Clear,220,2013-01-14 17:15:00
11:35 AM,25.0,10.0,53,30.44,10.0,SW,4.6,-,N/A,,Clear,230,2013-01-14 17:35:00
11:55 AM,25.7,9.7,51,30.43,10.0,SSW,8.1,-,N/A,,Clear,210,2013-01-14 17:55:00
12:15 PM,26.1,9.5,50,30.41,10.0,WSW,6.9,-,N/A,,Clear,240,2013-01-14 18:15:00
12:35 PM,26.8,9.3,48,30.40,10.0,SW,6.9,-,N/A,,Clear,230,2013-01-14 18:35:00
12:55 PM,28.2,8.8,44,30.39,10.0,WSW,9.2,-,N/A,,Clear,240,2013-01-14 18:55:00
1:15 PM,28.9,8.4,42,30.38,10.0,WSW,5.8,-,N/A,,Clear,250,2013-01-14 19:15:00
1:35 PM,29.5,7.3,39,30.37,10.0,WSW,6.9,-,N/A,,Clear,250,2013-01-14 19:35:00
1:55 PM,29.8,6.3,37,30.37,10.0,West,4.6,-,N/A,,Clear,280,2013-01-14 19:55:00
2:15 PM,30.0,4.8,34,30.36,10.0,West,3.5,-,N/A,,Clear,260,2013-01-14 20:15:00
2:35 PM,29.8,5.0,35,30.37,10.0,WSW,4.6,-,N/A,,Clear,240,2013-01-14 20:35:00
2:55 PM,30.4,5.5,35,30.37,10.0,West,6.9,-,N/A,,Clear,270,2013-01-14 20:55:00
3:15 PM,29.8,4.6,34,30.37,10.0,West,6.9,-,N/A,,Clear,260,2013-01-14 21:15:00
3:35 PM,30.0,5.7,36,30.37,10.0,WNW,3.5,-,N/A,,Clear,290,2013-01-14 21:35:00
4:15 PM,29.8,6.1,37,30.38,10.0,Calm,Calm,-,N/A,,Clear,0,2013-01-14 22:15:00
4:35 PM,29.1,7.2,40,30.38,10.0,Calm,Calm,-,N/A,,Clear,0,2013-01-14 22:35:00
4:55 PM,28.4,6.4,39,30.38,10.0,Calm,Calm,-,N/A,,Clear,0,2013-01-14 22:55:00
5:15 PM,27.5,9.0,46,30.37,10.0,Calm,Calm,-,N/A,,Clear,0,2013-01-14 23:15:00
5:35 PM,27.3,6.6,42,30.37,10.0,Calm,Calm,-,N/A,,Clear,0,2013-01-14 23:35:00
5:55 PM,25.9,8.8,48,30.37,10.0,Calm,Calm,-,N/A,,Clear,0,2013-01-14 23:55:00
6:15 PM,23.2,12.4,63,30.37,10.0,Calm,Calm,-,N/A,,Clear,0,2013-01-15 00:15:00
6:35 PM,20.8,12.0,69,30.38,10.0,Calm,Calm,-,N/A,,Clear,0,2013-01-15 00:35:00
6:55 PM,23.4,9.0,54,30.38,10.0,SSE,3.5,-,N/A,,Clear,160,2013-01-15 00:55:00
7:15 PM,23.2,7.5,51,30.38,10.0,South,3.5,-,N/A,,Clear,170,2013-01-15 01:15:00
7:35 PM,22.1,8.8,57,30.39,10.0,SSE,4.6,-,N/A,,Clear,150,2013-01-15 01:35:00
7:55 PM,22.3,7.7,54,30.38,10.0,South,4.6,-,N/A,,Clear,170,2013-01-15 01:55:00
8:15 PM,23.0,6.8,50,30.38,10.0,South,3.5,-,N/A,,Clear,190,2013-01-15 02:15:00
8:35 PM,21.9,7.5,54,30.38,10.0,South,3.5,-,N/A,,Clear,180,2013-01-15 02:35:00
8:55 PM,21.2,7.9,57,30.38,10.0,South,4.6,-,N/A,,Clear,190,2013-01-15 02:55:00
9:15 PM,20.3,8.2,60,30.38,10.0,South,3.5,-,N/A,,Clear,190,2013-01-15 03:15:00
9:35 PM,20.1,8.6,61,30.37,10.0,South,4.6,-,N/A,,Clear,190,2013-01-15 03:35:00
10:15 PM,19.6,8.2,61,30.37,10.0,South,5.8,-,N/A,,Clear,190,2013-01-15 04:15:00
10:35 PM,18.9,8.6,64,30.36,10.0,South,4.6,-,N/A,,Clear,180,2013-01-15 04:35:00
10:55 PM,19.2,8.6,63,30.36,10.0,South,5.8,-,N/A,,Clear,180,2013-01-15 04:55:00
11:15 PM,18.5,8.8,66,30.36,10.0,South,5.8,-,N/A,,Clear,190,2013-01-15 05:15:00
11:35 PM,17.4,8.6,68,30.36,10.0,South,4.6,-,N/A,,Clear,190,2013-01-15 05:35:00
11:55 PM,19.0,8.6,64,30.36,10.0,SW,4.6,-,N/A,,Clear,220,2013-01-15 05:55:00